Location: Songkhla
(7.2000°N, 100.6000°E)
Time: 20:40:56
(UTC+07:00)

SL-8 DEB - All Passes

Search period start: 04 October 2022 00:00
Search period end: 14 October 2022 00:00
Orbit: 1414 x 1696 km, 73.9° (Epoch: 02 June)

Date Brightness Start Highest point End Pass type
(mag) Time Alt. Az. Time Alt. Az. Time Alt. Az.
04 Oct - 08:10:31 10° SSE 08:17:48 27° E 08:25:20 10° NE daylight
04 Oct - 10:08:27 10° SW 10:16:56 43° WNW 10:25:53 10° N daylight
04 Oct - 20:47:40 10° N 20:57:04 76° ENE 21:05:53 10° SSE visible
04 Oct - 22:52:47 10° WNW 22:55:54 12° W 22:59:00 10° WSW visible
05 Oct - 07:39:11 10° SE 07:44:26 17° E 07:49:46 10° ENE daylight
05 Oct - 09:34:22 10° SSW 09:43:22 64° WNW 09:52:55 10° N daylight
05 Oct - 20:14:31 10° N 20:23:31 50° ENE 20:31:59 10° SSE visible
05 Oct - 22:16:06 10° NW 22:22:32 21° W 22:28:47 10° SW visible
06 Oct - 09:00:43 10° S 09:09:52 88° ESE 09:19:34 10° NNE daylight
06 Oct - 11:08:13 10° W 11:09:50 10° WNW 11:11:28 10° WNW daylight
06 Oct - 19:41:48 10° NNE 19:49:54 33° ENE 19:57:36 10° SE visible
06 Oct - 21:41:08 10° NW 21:49:10 34° W 21:56:51 10° SSW visible
07 Oct - 08:27:27 10° S 08:36:25 60° E 08:45:51 10° NNE daylight
07 Oct - 10:30:03 10° WSW 10:36:03 19° WNW 10:42:17 10° NNW daylight
07 Oct - 19:09:44 10° NNE 19:16:13 21° ENE 19:22:27 10° ESE visible
07 Oct - 21:06:51 10° NNW 21:15:46 52° W 21:24:13 10° S visible
08 Oct - 07:54:39 10° SSE 08:03:00 40° E 08:11:44 10° NE daylight
08 Oct - 09:54:39 10° SW 10:02:22 30° WNW 10:10:27 10° NNW daylight
08 Oct - 18:39:21 10° NE 18:42:28 12° ENE 18:45:32 10° E visible
08 Oct - 20:33:01 10° NNW 20:42:20 78° WSW 20:51:05 10° S visible
09 Oct - 07:22:25 10° SSE 07:29:38 26° E 07:37:03 10° NE daylight
09 Oct - 09:20:05 10° SW 09:28:44 46° WNW 09:37:53 10° N daylight
09 Oct - 19:59:33 10° N 20:08:50 72° ENE 20:17:34 10° SSE visible
09 Oct - 22:04:05 10° WNW 22:07:42 13° W 22:11:17 10° WSW visible
10 Oct - 06:51:18 10° SE 06:56:16 16° E 07:01:19 10° ENE daylight
10 Oct - 08:46:04 10° SSW 08:55:11 68° WNW 09:04:51 10° N daylight
10 Oct - 19:26:28 10° N 19:35:17 48° ENE 19:43:36 10° SSE visible
10 Oct - 21:27:45 10° NW 21:34:20 22° W 21:40:43 10° SSW visible
11 Oct - 08:12:27 10° S 08:21:42 84° E 08:31:26 10° NNE daylight
11 Oct - 10:18:43 10° W 10:21:37 12° WNW 10:24:33 10° NW daylight
11 Oct - 18:53:49 10° NNE 19:01:41 31° ENE 19:09:07 10° SE visible
11 Oct - 20:52:52 10° NW 21:00:57 36° W 21:08:41 10° SSW visible
12 Oct - 07:39:15 10° S 07:48:15 58° E 07:57:41 10° NNE daylight
12 Oct - 09:41:29 10° WSW 09:47:50 20° WNW 09:54:27 10° NNW daylight
12 Oct - 18:21:53 10° NNE 18:27:59 19° ENE 18:33:50 10° ESE visible
12 Oct - 20:18:40 10° NNW 20:27:33 55° W 20:35:59 10° S visible
13 Oct - 07:06:30 10° SSE 07:14:51 38° E 07:23:31 10° NE daylight
13 Oct - 09:06:13 10° SW 09:14:10 32° WNW 09:22:29 10° NNW daylight
13 Oct - 17:52:14 10° ENE 17:54:12 11° ENE 17:56:10 10° E daylight
13 Oct - 19:44:52 10° NNW 19:54:06 82° WSW 20:02:49 10° S visible
